EW9665 Weather Reports


time (UTC)temp
C
wind
direction
speed
KPH
gust
KPH
rain 1hr
cm
rain 24hr
cm
rain mn
cm
humidity
%
barometer
mb
20260510064015 10 19 6.4 17.7 0.00 0.00 0.00 85 1016.5
20260510063516 10 41 4.8 16.1 0.00 0.00 0.00 85 1016.5
20260510063034 10 59 6.4 17.7 0.00 0.00 0.00 85 1016.7
20260510062515 10 31 6.4 17.7 0.00 0.00 0.00 85 1016.5
20260510062014 10 131 4.8 17.7 0.00 0.00 0.00 85 1016.5
20260510061531 10 70 6.4 17.7 0.00 0.00 0.00 85 1016.7
20260510061016 10 69 4.8 14.5 0.00 0.00 0.00 85 1016.6
20260510060515 10 84 6.4 16.1 0.00 0.00 0.00 85 1016.6
20260510060039 10 57 6.4 16.1 0.00 0.00 0.00 86 1016.6
20260510055516 10 74 3.2 12.9 0.00 0.00 0.00 86 1016.5
20260510055015 10 61 3.2 16.1 0.00 0.00 0.00 86 1016.4
20260510054532 10 94 6.4 16.1 0.00 0.00 0.00 86 1016.4
20260510054017 10 62 6.4 17.7 0.00 0.00 0.00 86 1016.5
20260510053514 9 43 4.8 17.7 0.00 0.00 0.00 86 1016.5
20260510053030 9 72 4.8 17.7 0.00 0.00 0.00 86 1016.4
20260510052513 9 55 6.4 14.5 0.00 0.00 0.00 86 1016.5
20260510052014 9 56 4.8 12.9 0.00 0.00 0.00 85 1016.4
20260510051535 9 48 3.2 11.3 0.00 0.00 0.00 85 1016.4
20260510051016 9 53 3.2 11.3 0.00 0.00 0.00 85 1016.4
20260510050514 9 352 3.2 11.3 0.00 0.00 0.00 85 1016.3
20260510050031 9 0 3.2 9.7 0.00 0.00 0.00 85 1016.4
20260510045515 9 0 3.2 14.5 0.00 0.00 0.00 85 1016.5
20260510045016 9 66 3.2 14.5 0.00 0.00 0.00 85 1016.4
20260510044528 9 0 4.8 11.3 0.00 0.00 0.00 85 1016.5
20260510044020 9 0 3.2 11.3 0.00 0.00 0.00 85 1016.5
20260510043516 9 62 4.8 14.5 0.00 0.00 0.00 85 1016.5
20260510043030 9 40 1.6 14.5 0.00 0.00 0.00 85 1016.5
20260510042519 9 58 1.6 9.7 0.00 0.00 0.00 84 1016.4
20260510042015 9 50 1.6 8.0 0.00 0.00 0.00 84 1016.5
20260510041544 9 49 3.2 8.0 0.00 0.00 0.00 84 1016.5
20260510041015 9 70 1.6 11.3 0.00 0.00 0.00 84 1016.4
20260510040515 9 51 1.6 11.3 0.00 0.00 0.00 84 1016.4
20260510040033 9 35 3.2 9.7 0.00 0.00 0.00 84 1016.3
20260510035514 9 74 3.2 9.7 0.00 0.00 0.00 84 1016.4
20260510035014 9 58 1.6 6.4 0.00 0.00 0.00 83 1016.4
20260510034531 9 0 1.6 9.7 0.00 0.00 0.00 83 1016.4
20260510034014 9 57 3.2 9.7 0.00 0.00 0.00 83 1016.3
20260510033513 9 26 3.2 9.7 0.00 0.00 0.00 83 1016.4
20260510033027 9 0 0.0 9.7 0.00 0.00 0.00 83 1016.4
20260510032514 9 40 3.2 9.7 0.00 0.00 0.00 83 1016.5
20260510032015 9 67 3.2 12.9 0.00 0.00 0.00 83 1016.5
20260510031533 9 39 3.2 12.9 0.00 0.00 0.00 83 1016.6
20260510031016 9 49 1.6 12.9 0.00 0.00 0.00 83 1016.5
20260510030512 9 0 0.0 9.7 0.00 0.00 0.00 83 1016.5
20260510030032 9 0 1.6 9.7 0.00 0.00 0.00 83 1016.5
20260510025514 9 31 1.6 8.0 0.00 0.00 0.00 82 1016.6
20260510025015 9 0 0.0 8.0 0.00 0.00 0.00 82 1016.6
20260510024530 9 46 1.6 8.0 0.00 0.00 0.00 82 1016.7
20260510024015 9 39 0.0 11.3 0.00 0.00 0.00 82 1016.8
20260510023514 9 24 0.0 11.3 0.00 0.00 0.00 82 1016.6
20260510023030 9 68 1.6 11.3 0.00 0.00 0.00 82 1016.7
20260510022520 9 0 1.6 6.4 0.00 0.00 0.00 81 1016.6
20260510022016 10 0 0.0 6.4 0.00 0.00 0.00 81 1016.5
20260510021537 10 0 0.0 6.4 0.00 0.00 0.00 81 1016.7
20260510021016 10 49 0.0 6.4 0.00 0.00 0.00 81 1016.8
20260510020515 10 63 0.0 6.4 0.00 0.00 0.00 81 1016.7
20260510020033 10 0 0.0 6.4 0.00 0.00 0.00 81 1016.7
20260510015516 10 0 1.6 6.4 0.00 0.00 0.00 81 1016.7
20260510015015 10 0 0.0 6.4 0.00 0.00 0.00 81 1016.7
20260510014532 10 0 0.0 3.2 0.00 0.00 0.00 80 1016.8
20260510014016 10 0 0.0 4.8 0.00 0.00 0.00 80 1017.0
20260510013519 10 0 0.0 4.8 0.00 0.00 0.00 80 1016.8
20260510013037 10 0 0.0 4.8 0.00 0.00 0.00 80 1017.0
20260510012515 10 0 0.0 3.2 0.00 0.00 0.00 79 1017.0
20260510012015 10 37 0.0 4.8 0.00 0.00 0.00 79 1017.0
20260510011528 10 0 0.0 4.8 0.00 0.00 0.00 79 1017.0
20260510011015 10 0 0.0 6.4 0.00 0.00 0.00 79 1017.1
20260510010536 10 41 0.0 6.4 0.00 0.00 0.00 78 1017.1
20260510010036 10 37 0.0 3.2 0.00 0.00 0.00 78 1017.2
20260510005517 10 0 0.0 0.0 0.00 0.00 0.00 77 1017.1
20260510005015 10 0 0.0 0.0 0.00 0.00 0.00 77 1017.3
20260510004536 11 0 0.0 0.0 0.00 0.00 0.00 76 1017.3
20260510004018 11 0 0.0 0.0 0.00 0.00 0.00 76 1017.3
20260510003517 11 0 0.0 1.6 0.00 0.00 0.00 76 1017.3
20260510003042 11 0 0.0 3.2 0.00 0.00 0.00 76 1017.3
20260510002516 11 0 0.0 4.8 0.00 0.00 0.00 76 1017.3
20260510002017 11 0 0.0 4.8 0.00 0.00 0.00 76 1017.4
20260510001539 11 0 1.6 4.8 0.00 0.00 0.00 75 1017.5
20260510001017 11 0 1.6 8.0 0.00 0.00 0.00 75 1017.5
20260510000518 11 16 0.0 8.0 0.00 0.00 0.00 75 1017.6
20260510000039 11 54 1.6 8.0 0.00 0.00 0.00 75 1017.5
20260509235517 11 0 0.0 6.4 0.00 0.00 0.00 75 1017.5
20260509235020 11 0 0.0 4.8 0.00 0.00 0.00 75 1017.5
20260509234545 11 6 0.0 6.4 0.00 0.00 0.00 75 1017.5
20260509234020 12 50 1.6 6.4 0.00 0.00 0.00 74 1017.7
20260509233516 12 45 0.0 4.8 0.00 0.00 0.00 74 1017.5
20260509233034 12 0 0.0 1.6 0.00 0.00 0.00 74 1017.6
20260509232518 12 0 0.0 6.4 0.00 0.00 0.00 74 1017.7
20260509232017 12 0 0.0 6.4 0.00 0.00 0.00 73 1017.6
20260509231531 12 0 0.0 3.2 0.00 0.00 0.00 73 1017.7
20260509231016 12 0 0.0 3.2 0.00 0.00 0.00 73 1017.7
20260509230516 12 0 0.0 6.4 0.00 0.00 0.00 73 1017.8
20260509230036 12 0 0.0 6.4 0.00 0.00 0.00 72 1017.8
20260509225516 12 49 1.6 6.4 0.00 0.00 0.00 72 1017.8
20260509225016 12 46 0.0 8.0 0.00 0.00 0.00 72 1017.8
20260509224530 12 49 3.2 8.0 0.00 0.00 0.00 72 1017.7
20260509224018 12 58 1.6 6.4 0.00 0.00 0.00 72 1017.7
20260509223517 12 0 0.0 8.0 0.00 0.00 0.00 72 1017.7
20260509223032 12 0 0.0 8.0 0.00 0.00 0.00 72 1017.7
20260509222517 13 58 3.2 8.0 0.00 0.00 0.00 71 1017.8
20260509222020 13 58 1.6 8.0 0.00 0.00 0.00 71 1017.8
20260509221530 13 62 1.6 6.4 0.00 0.00 0.00 71 1017.7
20260509221019 13 60 1.6 6.4 0.00 0.00 0.00 70 1017.9
20260509220516 13 0 0.0 4.8 0.00 0.00 0.00 70 1017.9
20260509220029 13 0 0.0 4.8 0.00 0.00 0.00 69 1017.9
20260509215517 13 63 0.0 4.8 0.00 0.00 0.00 69 1017.9
20260509215016 13 0 1.6 4.8 0.00 0.00 0.00 69 1017.9
20260509214538 13 0 0.0 6.4 0.00 0.00 0.00 69 1017.8
20260509214017 13 0 0.0 6.4 0.00 0.00 0.00 68 1017.8
20260509213518 13 60 3.2 6.4 0.00 0.00 0.00 69 1017.9
20260509213039 13 49 1.6 6.4 0.00 0.00 0.00 69 1017.9
20260509212514 13 0 0.0 4.8 0.00 0.00 0.00 69 1017.9
20260509212018 13 0 0.0 4.8 0.00 0.00 0.00 68 1018.0
20260509211531 13 0 0.0 4.8 0.00 0.00 0.00 68 1017.8
20260509211018 14 54 3.2 6.4 0.00 0.00 0.00 68 1017.8
20260509210519 14 43 1.6 6.4 0.00 0.00 0.00 68 1017.8
20260509210034 14 65 1.6 6.4 0.00 0.00 0.00 68 1017.8
20260509205516 14 68 3.2 8.0 0.00 0.00 0.00 68 1017.8
20260509205015 14 62 3.2 8.0 0.00 0.00 0.00 68 1017.7
20260509204542 14 54 1.6 6.4 0.00 0.00 0.00 68 1017.7
20260509204015 14 53 3.2 6.4 0.00 0.00 0.00 68 1017.8
20260509203518 14 52 3.2 6.4 0.00 0.00 0.00 67 1017.8
20260509203035 14 48 1.6 8.0 0.00 0.00 0.00 67 1017.9
20260509202516 14 48 1.6 8.0 0.00 0.00 0.00 67 1017.9
20260509202017 14 0 0.0 4.8 0.00 0.00 0.00 67 1017.9
20260509201534 15 60 0.0 4.8 0.00 0.00 0.00 66 1017.8
20260509201016 15 60 0.0 4.8 0.00 0.00 0.00 66 1017.7
20260509200518 15 58 0.0 4.8 0.00 0.00 0.00 66 1017.7
20260509200038 15 0 0.0 4.8 0.00 0.00 0.00 66 1017.7
20260509195516 15 56 0.0 4.8 0.00 0.00 0.00 66 1017.7
20260509195019 15 0 1.6 4.8 0.00 0.00 0.00 65 1017.7
20260509194539 15 0 0.0 0.0 0.00 0.00 0.00 65 1017.7
20260509194019 16 0 0.0 0.0 0.00 0.00 0.00 65 1017.7
20260509193516 16 0 0.0 0.0 0.00 0.00 0.00 64 1017.7
20260509193039 16 0 0.0 3.2 0.00 0.00 0.00 63 1017.7
20260509192517 16 0 0.0 4.8 0.00 0.00 0.00 63 1017.5
20260509192018 16 0 1.6 4.8 0.00 0.00 0.00 62 1017.3
20260509191536 16 60 0.0 4.8 0.00 0.00 0.00 61 1017.2
20260509191021 17 0 0.0 4.8 0.00 0.00 0.00 60 1017.3
20260509190516 17 0 0.0 4.8 0.00 0.00 0.00 60 1017.3
20260509190036 17 0 1.6 4.8 0.00 0.00 0.00 60 1017.2
20260509185519 17 0 0.0 6.4 0.00 0.00 0.00 59 1017.2
20260509185021 17 63 0.0 6.4 0.00 0.00 0.00 59 1017.2
20260509184536 17 62 0.0 6.4 0.00 0.00 0.00 58 1017.2
20260509184018 18 57 1.6 6.4 0.00 0.00 0.00 57 1017.2
20260509183517 18 62 0.0 8.0 0.00 0.00 0.00 57 1017.2
20260509183032 18 33 1.6 14.5 0.00 0.00 0.00 56 1017.2
20260509182517 18 23 3.2 14.5 0.00 0.00 0.00 56 1017.1
20260509182014 18 14 3.2 14.5 0.00 0.00 0.00 55 1017.1
20260509181533 18 0 1.6 12.9 0.00 0.00 0.00 56 1017.1
20260509181016 18 0 4.8 12.9 0.00 0.00 0.00 55 1016.9
20260509180517 18 64 3.2 8.0 0.00 0.00 0.00 55 1017.0
20260509180032 19 53 1.6 8.0 0.00 0.00 0.00 54 1017.1
20260509175518 19 59 1.6 8.0 0.00 0.00 0.00 53 1017.3
20260509175021 19 57 1.6 8.0 0.00 0.00 0.00 53 1017.3
20260509174531 19 0 1.6 11.3 0.00 0.00 0.00 55 1017.2
20260509174017 18 0 1.6 11.3 0.00 0.00 0.00 54 1017.1
20260509173516 18 62 3.2 11.3 0.00 0.00 0.00 54 1017.0
20260509173033 19 60 3.2 11.3 0.00 0.00 0.00 55 1016.9
20260509172517 19 74 6.4 12.9 0.00 0.00 0.00 54 1016.8
20260509172015 19 70 4.8 12.9 0.00 0.00 0.00 53 1016.8
20260509171536 19 59 1.6 11.3 0.00 0.00 0.00 54 1016.8
20260509171016 19 65 4.8 12.9 0.00 0.00 0.00 52 1017.0
20260509170516 19 93 6.4 14.5 0.00 0.00 0.00 53 1017.0
20260509170030 19 41 6.4 17.7 0.00 0.00 0.00 54 1017.0
20260509165517 20 64 9.7 17.7 0.00 0.00 0.00 52 1016.9
20260509165021 20 58 4.8 12.9 0.00 0.00 0.00 53 1017.0
20260509164530 20 0 0.0 8.0 0.00 0.00 0.00 51 1017.0
20260509164018 20 358 1.6 8.0 0.00 0.00 0.00 51 1016.9
20260509163517 20 9 0.0 12.9 0.00 0.00 0.00 55 1017.0
20260509163034 20 0 0.0 12.9 0.00 0.00 0.00 50 1016.9
20260509162517 20 68 3.2 14.5 0.00 0.00 0.00 54 1017.0
20260509162020 20 52 4.8 14.5 0.00 0.00 0.00 50 1016.9
20260509161533 20 68 3.2 12.9 0.00 0.00 0.00 49 1016.9
20260509161016 20 11 4.8 12.9 0.00 0.00 0.00 50 1016.8
20260509160517 20 81 6.4 14.5 0.00 0.00 0.00 51 1016.8
20260509160032 20 0 3.2 16.1 0.00 0.00 0.00 49 1016.9
20260509155515 20 63 4.8 16.1 0.00 0.00 0.00 52 1016.9
20260509155016 20 58 4.8 12.9 0.00 0.00 0.00 53 1016.8
20260509154535 20 53 3.2 12.9 0.00 0.00 0.00 52 1016.9
20260509154017 20 62 3.2 14.5 0.00 0.00 0.00 53 1016.9
20260509153521 20 44 1.6 17.7 0.00 0.00 0.00 54 1017.1
20260509153036 20 74 6.4 17.7 0.00 0.00 0.00 51 1017.1
20260509152516 20 88 9.7 17.7 0.00 0.00 0.00 51 1017.2
20260509152015 21 62 4.8 17.7 0.00 0.00 0.00 52 1017.1
20260509151535 20 0 0.0 8.0 0.00 0.00 0.00 52 1017.2
20260509151016 20 0 0.0 8.0 0.00 0.00 0.00 50 1017.3
20260509150517 20 0 1.6 9.7 0.00 0.00 0.00 52 1017.3
20260509150033 20 0 0.0 11.3 0.00 0.00 0.00 53 1017.4
20260509145516 20 353 3.2 11.3 0.00 0.00 0.00 55 1017.5
20260509145018 20 76 0.0 11.3 0.00 0.00 0.00 55 1017.4
20260509144534 20 45 3.2 11.3 0.00 0.00 0.00 54 1017.3
20260509144016 20 89 3.2 16.1 0.00 0.00 0.00 53 1017.4
20260509143517 20 81 6.4 16.1 0.00 0.00 0.00 51 1017.3
20260509143038 20 86 4.8 14.5 0.00 0.00 0.00 56 1017.5
20260509142516 20 92 3.2 14.5 0.00 0.00 0.00 56 1017.5
20260509142017 20 0 0.0 14.5 0.00 0.00 0.00 59 1017.5
20260509141537 20 97 6.4 14.5 0.00 0.00 0.00 56 1017.5
20260509141017 20 93 6.4 14.5 0.00 0.00 0.00 55 1017.5
20260509140517 20 110 9.7 14.5 0.00 0.00 0.00 56 1017.6
20260509140054 20 106 6.4 14.5 0.00 0.00 0.00 56 1017.6
20260509135516 20 97 6.4 14.5 0.00 0.00 0.00 57 1017.6
20260509135017 20 118 4.8 19.3 0.00 0.00 0.00 57 1017.7
20260509134534 19 106 8.0 20.9 0.00 0.00 0.00 57 1017.8
20260509134016 20 54 9.7 20.9 0.00 0.00 0.00 58 1017.8
20260509133517 20 86 6.4 19.3 0.00 0.00 0.00 57 1017.9
20260509133033 19 39 6.4 19.3 0.00 0.00 0.00 56 1017.9
20260509132517 19 65 11.3 19.3 0.00 0.00 0.00 59 1018.0
20260509132015 19 80 6.4 16.1 0.00 0.00 0.00 57 1018.0
20260509131540 19 91 9.7 16.1 0.00 0.00 0.00 56 1018.1
20260509131014 19 91 4.8 16.1 0.00 0.00 0.00 57 1018.0
20260509130517 19 116 6.4 16.1 0.00 0.00 0.00 56 1018.2
20260509130033 19 0 0.0 16.1 0.00 0.00 0.00 59 1018.2
20260509125518 19 113 6.4 16.1 0.00 0.00 0.00 56 1018.3
20260509125018 19 127 6.4 14.5 0.00 0.00 0.00 57 1018.3
20260509124535 18 96 6.4 14.5 0.00 0.00 0.00 60 1018.4
20260509124015 18 86 4.8 14.5 0.00 0.00 0.00 59 1018.5
20260509123515 18 120 6.4 14.5 0.00 0.00 0.00 60 1018.5
20260509123032 18 60 6.4 14.5 0.00 0.00 0.00 59 1018.6
20260509122515 19 77 9.7 16.1 0.00 0.00 0.00 57 1018.6
20260509122015 18 21 3.2 16.1 0.00 0.00 0.00 58 1018.7
20260509121544 18 112 6.4 17.7 0.00 0.00 0.00 62 1018.7
20260509121024 18 67 11.3 17.7 0.00 0.00 0.00 58 1018.8
20260509120517 18 91 4.8 16.1 0.00 0.00 0.00 60 1018.8
20260509120035 18 106 9.7 16.1 0.00 0.00 0.00 58 1018.8
20260509115516 18 81 6.4 16.1 0.00 0.00 0.00 60 1018.9
20260509115016 18 85 1.6 20.9 0.00 0.00 0.00 59 1018.9
20260509114534 18 65 9.7 20.9 0.00 0.00 0.00 60 1018.8
20260509114014 18 97 3.2 14.5 0.00 0.00 0.00 60 1018.8
20260509113516 18 56 8.0 17.7 0.00 0.00 0.00 62 1018.8
20260509113031 18 80 8.0 17.7 0.00 0.00 0.00 62 1019.0
20260509112515 18 81 3.2 17.7 0.00 0.00 0.00 59 1019.1
20260509112016 18 63 8.0 17.7 0.00 0.00 0.00 61 1019.1
20260509111535 18 57 8.0 17.7 0.00 0.00 0.00 62 1019.3
20260509111016 18 84 6.4 16.1 0.00 0.00 0.00 61 1019.2
20260509110517 18 100 4.8 16.1 0.00 0.00 0.00 62 1019.2
20260509110032 18 67 8.0 17.7 0.00 0.00 0.00 61 1019.2
20260509105515 18 72 4.8 17.7 0.00 0.00 0.00 62 1019.2
20260509105017 18 83 9.7 19.3 0.00 0.00 0.00 58 1019.4
20260509104532 18 98 9.7 19.3 0.00 0.00 0.00 59 1019.4
20260509104015 18 89 6.4 16.1 0.00 0.00 0.00 59 1019.5
20260509103515 18 79 6.4 20.9 0.00 0.00 0.00 60 1019.6
20260509103035 18 68 11.3 20.9 0.00 0.00 0.00 59 1019.6
20260509102516 18 100 9.7 20.9 0.00 0.00 0.00 60 1019.6
20260509102015 18 89 8.0 16.1 0.00 0.00 0.00 59 1019.5
20260509101532 18 113 9.7 16.1 0.00 0.00 0.00 59 1019.7
20260509101016 18 101 8.0 20.9 0.00 0.00 0.00 61 1019.5
20260509100515 17 120 6.4 20.9 0.00 0.00 0.00 62 1019.5
20260509100035 17 85 8.0 19.3 0.00 0.00 0.00 60 1019.4
20260509095515 17 92 9.7 19.3 0.00 0.00 0.00 59 1019.4
20260509095015 17 83 8.0 16.1 0.00 0.00 0.00 61 1019.5
20260509094531 17 85 8.0 17.7 0.00 0.00 0.00 60 1019.5
20260509094016 17 111 11.3 19.3 0.00 0.00 0.00 62 1019.6
20260509093515 17 112 11.3 19.3 0.00 0.00 0.00 60 1019.6
20260509093034 17 93 9.7 19.3 0.00 0.00 0.00 61 1019.6
20260509092516 17 78 9.7 17.7 0.00 0.00 0.00 61 1019.5
20260509092016 17 81 6.4 17.7 0.00 0.00 0.00 63 1019.6
20260509091532 17 114 8.0 17.7 0.00 0.00 0.00 62 1019.7
20260509091016 17 114 8.0 16.1 0.00 0.00 0.00 65 1019.7
20260509090516 17 118 8.0 16.1 0.00 0.00 0.00 62 1019.7
20260509090032 17 45 8.0 16.1 0.00 0.00 0.00 67 1019.6
20260509085517 17 60 3.2 16.1 0.00 0.00 0.00 66 1019.8
20260509085015 17 52 4.8 16.1 0.00 0.00 0.00 68 1019.8
20260509084536 16 103 9.7 16.1 0.00 0.00 0.00 67 1019.6
20260509084016 16 87 8.0 16.1 0.00 0.00 0.00 66 1019.7
20260509083514 16 102 4.8 16.1 0.00 0.00 0.00 68 1019.6
20260509083044 16 58 4.8 16.1 0.00 0.00 0.00 70 1019.7
20260509082514 16 104 6.4 12.9 0.00 0.00 0.00 68 1019.8
20260509082015 16 76 4.8 11.3 0.00 0.00 0.00 71 1019.7
20260509081533 16 93 3.2 14.5 0.00 0.00 0.00 72 1019.8
20260509081015 15 68 4.8 14.5 0.00 0.00 0.00 72 1019.8
20260509080516 15 91 3.2 14.5 0.00 0.00 0.00 73 1019.8
20260509080031 15 52 6.4 14.5 0.00 0.00 0.00 69 1020.0
20260509075521 15 75 8.0 14.5 0.00 0.00 0.00 71 1020.0
20260509075019 15 82 6.4 12.9 0.00 0.00 0.00 72 1020.0
20260509074530 14 112 4.8 12.9 0.00 0.00 0.00 74 1020.1
20260509074016 13 104 6.4 12.9 0.00 0.00 0.00 74 1020.1
20260509073515 13 100 8.0 12.9 0.00 0.00 0.00 74 1020.2
20260509073029 13 84 4.8 11.3 0.00 0.00 0.00 76 1020.1
20260509072517 13 95 4.8 11.3 0.00 0.00 0.00 77 1020.1
20260509072015 13 100 4.8 11.3 0.00 0.00 0.00 77 1020.3
20260509071531 12 70 4.8 11.3 0.00 0.00 0.00 78 1020.3
20260509071018 12 109 4.8 11.3 0.00 0.00 0.00 79 1020.2
20260509070517 12 106 4.8 11.3 0.00 0.00 0.00 80 1020.2
20260509070035 11 101 4.8 9.7 0.00 0.00 0.00 81 1020.4
20260509065514 11 101 3.2 6.4 0.00 0.00 0.00 81 1020.3
20260509065019 11 99 3.2 6.4 0.00 0.00 0.00 81 1020.4
20260509064532 11 0 0.0 6.4 0.00 0.00 0.00 82 1020.3